| time (UTC) | temp C | wind direction | speed KPH | gust KPH | rain 1hr cm | rain 24hr cm | rain mn cm | humidity % | barometer mb |
| 20260507181023 | 14 | 17 | 3.2 | 9.7 | 0.00 | 0.71 | 0.15 | 69 | 1012.7 |
| 20260507180021 | 14 | 355 | 6.4 | 9.7 | 0.00 | 0.71 | 0.15 | 68 | 1012.5 |
| 20260507175041 | 15 | 5 | 4.8 | 8.0 | 0.00 | 0.71 | 0.15 | 67 | 1012.6 |
| 20260507174050 | 15 | 55 | 1.6 | 4.8 | 0.00 | 0.71 | 0.15 | 68 | 1012.4 |
| 20260507173026 | 15 | 346 | 4.8 | 8.0 | 0.00 | 0.71 | 0.15 | 68 | 1012.3 |
| 20260507172023 | 15 | 36 | 3.2 | 9.7 | 0.00 | 0.71 | 0.15 | 68 | 1012.4 |
| 20260507171018 | 15 | 5 | 4.8 | 11.3 | 0.00 | 0.71 | 0.15 | 67 | 1012.3 |
| 20260507170015 | 15 | 355 | 6.4 | 12.9 | 0.00 | 0.71 | 0.15 | 66 | 1012.3 |
| 20260507165049 | 15 | 360 | 6.4 | 16.1 | 0.00 | 0.71 | 0.15 | 65 | 1012.2 |
| 20260507164026 | 16 | 15 | 8.0 | 14.5 | 0.00 | 0.71 | 0.15 | 64 | 1012.1 |
| 20260507163024 | 16 | 64 | 3.2 | 6.4 | 0.00 | 0.71 | 0.15 | 67 | 1012.2 |
| 20260507162014 | 15 | 48 | 1.6 | 6.4 | 0.00 | 0.71 | 0.15 | 66 | 1012.1 |
| 20260507161027 | 15 | 68 | 3.2 | 6.4 | 0.00 | 0.71 | 0.15 | 67 | 1012.2 |
| 20260507160058 | 16 | 55 | 4.8 | 6.4 | 0.00 | 0.71 | 0.15 | 66 | 1012.1 |
| 20260507155026 | 16 | 342 | 0.0 | 4.8 | 0.00 | 0.71 | 0.15 | 64 | 1012.2 |
| 20260507154044 | 16 | 342 | 6.4 | 8.0 | 0.00 | 0.71 | 0.15 | 65 | 1012.2 |
| 20260507153016 | 16 | 110 | 3.2 | 6.4 | 0.00 | 0.71 | 0.15 | 64 | 1012.2 |
| 20260507152018 | 16 | 117 | 3.2 | 9.7 | 0.00 | 0.71 | 0.15 | 63 | 1012.1 |
| 20260507151032 | 17 | 22 | 1.6 | 8.0 | 0.00 | 0.71 | 0.15 | 62 | 1012.3 |
| 20260507150019 | 17 | 301 | 6.4 | 11.3 | 0.00 | 0.71 | 0.15 | 65 | 1012.3 |
| 20260507145016 | 17 | 5 | 3.2 | 12.9 | 0.00 | 0.71 | 0.15 | 66 | 1012.3 |
| 20260507144028 | 17 | 309 | 4.8 | 12.9 | 0.00 | 0.71 | 0.15 | 64 | 1012.3 |
| 20260507143045 | 16 | 267 | 1.6 | 12.9 | 0.00 | 0.71 | 0.15 | 70 | 1012.2 |
| 20260507142022 | 16 | 303 | 6.4 | 14.5 | 0.00 | 0.71 | 0.15 | 70 | 1012.3 |
| 20260507141015 | 16 | 300 | 6.4 | 17.7 | 0.00 | 0.71 | 0.15 | 70 | 1012.3 |
| 20260507140030 | 15 | 306 | 4.8 | 17.7 | 0.00 | 0.79 | 0.15 | 70 | 1012.3 |
| 20260507135048 | 16 | 327 | 8.0 | 17.7 | 0.00 | 0.79 | 0.15 | 71 | 1012.5 |
| 20260507134022 | 15 | 296 | 6.4 | 14.5 | 0.00 | 0.79 | 0.15 | 71 | 1012.5 |
| 20260507133039 | 16 | 348 | 11.3 | 17.7 | 0.00 | 0.79 | 0.15 | 72 | 1012.5 |
| 20260507132027 | 15 | 9 | 4.8 | 9.7 | 0.00 | 0.79 | 0.15 | 70 | 1012.6 |
| 20260507131024 | 16 | 39 | 4.8 | 9.7 | 0.00 | 0.79 | 0.15 | 71 | 1012.5 |
| 20260507130022 | 16 | 84 | 4.8 | 12.9 | 0.00 | 2.21 | 0.15 | 70 | 1012.4 |
| 20260507125022 | 17 | 53 | 4.8 | 14.5 | 0.00 | 2.21 | 0.15 | 66 | 1012.6 |
| 20260507124038 | 17 | 348 | 11.3 | 17.7 | 0.00 | 2.21 | 0.15 | 69 | 1012.6 |
| 20260507123027 | 17 | 94 | 3.2 | 16.1 | 0.00 | 2.21 | 0.15 | 69 | 1012.6 |
| 20260507122027 | 16 | 69 | 8.0 | 16.1 | 0.00 | 2.21 | 0.15 | 72 | 1012.6 |
| 20260507121025 | 16 | 275 | 4.8 | 19.3 | 0.00 | 2.21 | 0.15 | 72 | 1012.5 |
| 20260507120038 | 17 | 320 | 4.8 | 16.1 | 0.00 | 5.41 | 0.15 | 72 | 1012.6 |
| 20260507115037 | 17 | 320 | 8.0 | 20.9 | 0.00 | 5.41 | 0.15 | 70 | 1012.5 |
| 20260507114027 | 17 | 348 | 6.4 | 20.9 | 0.00 | 5.41 | 0.15 | 69 | 1012.5 |
| 20260507113026 | 16 | 275 | 6.4 | 14.5 | 0.00 | 5.41 | 0.15 | 66 | 1012.6 |
| 20260507112018 | 16 | 13 | 4.8 | 14.5 | 0.00 | 5.41 | 0.15 | 73 | 1012.7 |
| 20260507111029 | 16 | 266 | 4.8 | 12.9 | 0.00 | 5.41 | 0.15 | 74 | 1012.7 |
| 20260507110028 | 15 | 323 | 4.8 | 8.0 | 0.00 | 5.99 | 0.15 | 74 | 1012.8 |
| 20260507105027 | 15 | 250 | 3.2 | 16.1 | 0.00 | 5.99 | 0.15 | 75 | 1012.8 |
| 20260507104019 | 14 | 36 | 9.7 | 14.5 | 0.00 | 5.99 | 0.15 | 77 | 1013.0 |
| 20260507103049 | 14 | 293 | 3.2 | 16.1 | 0.00 | 5.99 | 0.15 | 77 | 1013.0 |
| 20260507102025 | 14 | 298 | 6.4 | 14.5 | 0.00 | 5.99 | 0.15 | 79 | 1013.1 |
| 20260507101021 | 13 | 277 | 3.2 | 11.3 | 0.00 | 5.99 | 0.15 | 80 | 1013.2 |
| 20260507100018 | 13 | 306 | 1.6 | 12.9 | 0.00 | 5.99 | 0.15 | 85 | 1013.2 |
| 20260507095017 | 12 | 302 | 1.6 | 12.9 | 0.00 | 5.99 | 0.15 | 85 | 1013.2 |
| 20260507094031 | 12 | 24 | 3.2 | 8.0 | 0.00 | 5.99 | 0.15 | 87 | 1013.2 |
| 20260507093020 | 12 | 279 | 6.4 | 12.9 | 0.00 | 5.99 | 0.15 | 86 | 1013.2 |
| 20260507092017 | 11 | 281 | 6.4 | 14.5 | 0.10 | 5.99 | 0.15 | 88 | 1013.2 |
| 20260507091028 | 11 | 282 | 3.2 | 14.5 | 0.10 | 5.99 | 0.15 | 88 | 1013.2 |
| 20260507090027 | 11 | 295 | 4.8 | 9.7 | 0.20 | 5.99 | 0.15 | 89 | 1013.1 |
| 20260507085021 | 11 | 345 | 3.2 | 8.0 | 0.20 | 5.99 | 0.15 | 89 | 1013.0 |
| 20260507084040 | 11 | 346 | 3.2 | 4.8 | 0.30 | 5.99 | 0.15 | 90 | 1013.0 |
| 20260507083016 | 10 | 301 | 0.0 | 3.2 | 0.41 | 5.99 | 0.15 | 90 | 1013.0 |
| 20260507082035 | 10 | 263 | 1.6 | 3.2 | 0.30 | 5.89 | 0.13 | 89 | 1013.0 |
| 20260507081025 | 10 | 285 | 0.0 | 3.2 | 0.30 | 5.89 | 0.13 | 89 | 1013.0 |
| 20260507080024 | 10 | 273 | 0.0 | 3.2 | 0.30 | 5.79 | 0.10 | 90 | 1013.0 |
| 20260507075023 | 10 | 273 | 0.0 | 1.6 | 0.20 | 5.69 | 0.08 | 90 | 1013.0 |
| 20260507074022 | 10 | 269 | 0.0 | 3.2 | 0.20 | 5.69 | 0.08 | 90 | 1012.9 |
| 20260507073014 | 10 | 306 | 0.0 | 6.4 | 0.10 | 5.59 | 0.05 | 90 | 1012.8 |
| 20260507072050 | 10 | 296 | 1.6 | 4.8 | 0.10 | 5.59 | 0.05 | 90 | 1012.8 |
| 20260507071028 | 10 | 299 | 0.0 | 3.2 | 0.10 | 5.59 | 0.05 | 90 | 1012.7 |
| 20260507070018 | 10 | 343 | 0.0 | 3.2 | 0.00 | 5.51 | 0.05 | 90 | 1012.6 |
| 20260507065016 | 10 | 343 | 0.0 | 3.2 | 0.00 | 5.51 | 0.05 | 91 | 1012.6 |
| 20260507064034 | 9 | 343 | 0.0 | 1.6 | 0.00 | 5.51 | 0.05 | 91 | 1012.5 |
| 20260507063034 | 9 | 343 | 0.0 | 1.6 | 0.00 | 5.51 | 0.05 | 91 | 1012.3 |
| 20260507062030 | 9 | 343 | 0.0 | 0.0 | 0.00 | 5.51 | 0.05 | 91 | 1012.3 |
| 20260507061045 | 9 | 343 | 0.0 | 3.2 | 0.00 | 5.51 | 0.05 | 91 | 1012.2 |
| 20260507060019 | 8 | 343 | 0.0 | 0.0 | 0.00 | 5.51 | 0.05 | 91 | 1012.2 |
| 20260507055028 | 8 | 343 | 0.0 | 0.0 | 0.00 | 5.51 | 0.05 | 91 | 1012.1 |
| 20260507054026 | 8 | 343 | 0.0 | 0.0 | 0.00 | 5.51 | 0.05 | 91 | 1012.0 |
| 20260507053018 | 8 | 343 | 0.0 | 0.0 | 0.00 | 5.51 | 0.05 | 91 | 1011.9 |
| 20260507052018 | 8 | 343 | 0.0 | 0.0 | 0.00 | 5.51 | 0.05 | 91 | 1011.8 |
| 20260507051038 | 8 | 343 | 0.0 | 0.0 | 0.00 | 5.51 | 0.05 | 91 | 1011.6 |
| 20260507050058 | 8 | 343 | 0.0 | 0.0 | 0.00 | 5.51 | 0.05 | 91 | 1011.6 |
| 20260507045036 | 8 | 343 | 0.0 | 0.0 | 0.00 | 5.51 | 0.05 | 91 | 1011.6 |
| 20260507044027 | 8 | 319 | 0.0 | 0.0 | 0.00 | 5.51 | 0.05 | 91 | 1011.4 |
| 20260507043025 | 8 | 319 | 0.0 | 0.0 | 0.00 | 5.51 | 0.05 | 91 | 1011.3 |
| 20260507042019 | 8 | 319 | 0.0 | 0.0 | 0.00 | 5.51 | 0.05 | 90 | 1011.3 |
| 20260507041029 | 8 | 319 | 0.0 | 0.0 | 0.00 | 5.51 | 0.05 | 90 | 1011.2 |
| 20260507040029 | 8 | 319 | 0.0 | 1.6 | 0.00 | 5.51 | 0.05 | 90 | 1011.2 |
| 20260507035026 | 8 | 319 | 0.0 | 0.0 | 0.00 | 5.51 | 0.05 | 90 | 1011.1 |
| 20260507034018 | 8 | 319 | 0.0 | 0.0 | 0.00 | 5.51 | 0.05 | 90 | 1011.1 |
| 20260507033037 | 8 | 319 | 0.0 | 1.6 | 0.10 | 5.51 | 0.05 | 90 | 1011.0 |
| 20260507032029 | 8 | 320 | 0.0 | 1.6 | 0.10 | 5.51 | 0.05 | 90 | 1010.9 |
| 20260507031027 | 8 | 320 | 0.0 | 1.6 | 0.10 | 5.51 | 0.05 | 90 | 1010.9 |
| 20260507030027 | 8 | 320 | 0.0 | 3.2 | 0.10 | 5.51 | 0.05 | 89 | 1010.8 |
| 20260507025026 | 8 | 327 | 1.6 | 3.2 | 0.10 | 5.51 | 0.05 | 89 | 1010.8 |
| 20260507024018 | 8 | 327 | 0.0 | 1.6 | 0.10 | 5.41 | 0.03 | 89 | 1010.7 |
| 20260507023048 | 8 | 331 | 0.0 | 4.8 | 0.10 | 5.41 | 0.03 | 89 | 1010.8 |
| 20260507022056 | 8 | 304 | 0.0 | 3.2 | 0.10 | 5.41 | 0.03 | 89 | 1010.7 |
| 20260507021023 | 8 | 281 | 1.6 | 16.1 | 0.10 | 5.41 | 0.03 | 89 | 1010.7 |
| 20260507020018 | 8 | 273 | 1.6 | 6.4 | 0.10 | 5.41 | 0.03 | 89 | 1010.6 |
| 20260507015031 | 8 | 266 | 3.2 | 9.7 | 0.10 | 5.41 | 0.03 | 89 | 1010.5 |
| 20260507014023 | 8 | 267 | 3.2 | 11.3 | 0.00 | 5.31 | 0.00 | 90 | 1010.5 |
| 20260507013020 | 7 | 264 | 3.2 | 6.4 | 0.00 | 5.31 | 0.00 | 91 | 1010.4 |
| 20260507012034 | 7 | 282 | 1.6 | 4.8 | 0.00 | 5.31 | 0.00 | 91 | 1010.4 |
| 20260507011026 | 7 | 290 | 0.0 | 6.4 | 0.00 | 5.31 | 0.00 | 91 | 1010.3 |
| 20260507010025 | 7 | 271 | 0.0 | 3.2 | 0.00 | 5.31 | 0.00 | 91 | 1010.2 |
| 20260507005023 | 7 | 266 | 0.0 | 4.8 | 0.00 | 5.31 | 0.00 | 91 | 1010.2 |
| 20260507004014 | 7 | 276 | 3.2 | 9.7 | 0.00 | 5.31 | 0.00 | 91 | 1010.2 |
| 20260507003057 | 7 | 232 | 0.0 | 3.2 | 0.00 | 5.31 | 0.00 | 91 | 1010.2 |
| 20260507002026 | 6 | 232 | 1.6 | 4.8 | 0.00 | 5.31 | 0.00 | 91 | 1010.2 |
| 20260507001026 | 6 | 217 | 0.0 | 3.2 | 0.00 | 5.31 | 0.00 | 91 | 1010.2 |
| 20260507000043 | 6 | 215 | 0.0 | 1.6 | 0.00 | 5.31 | 0.00 | 91 | 1010.2 |
| 20260506235023 | 5 | 215 | 0.0 | 1.6 | 0.00 | 5.31 | 0.00 | 91 | 1010.2 |
| 20260506234041 | 5 | 215 | 0.0 | 0.0 | 0.00 | 5.31 | 0.00 | 91 | 1010.2 |
| 20260506233040 | 5 | 215 | 0.0 | 3.2 | 0.00 | 5.31 | 0.00 | 91 | 1010.1 |
| 20260506232018 | 5 | 215 | 0.0 | 1.6 | 0.00 | 5.31 | 0.00 | 91 | 1010.1 |
| 20260506231038 | 5 | 215 | 0.0 | 0.0 | 0.00 | 5.31 | 0.00 | 91 | 1010.1 |
| 20260506230029 | 6 | 215 | 0.0 | 0.0 | 0.00 | 5.31 | 0.00 | 91 | 1010.0 |
| 20260506225052 | 6 | 215 | 0.0 | 0.0 | 0.00 | 5.31 | 0.00 | 91 | 1010.0 |
| 20260506224025 | 6 | 215 | 0.0 | 1.6 | 0.00 | 5.31 | 0.00 | 91 | 1010.1 |
| 20260506223023 | 6 | 215 | 0.0 | 0.0 | 0.00 | 5.31 | 0.00 | 91 | 1010.0 |
| 20260506222023 | 6 | 215 | 0.0 | 0.0 | 0.00 | 5.31 | 0.00 | 90 | 1010.1 |
| 20260506221015 | 6 | 215 | 0.0 | 0.0 | 0.00 | 5.31 | 0.00 | 90 | 1010.0 |
| 20260506220029 | 6 | 215 | 0.0 | 0.0 | 0.00 | 5.31 | 1.07 | 90 | 1010.0 |
| 20260506215029 | 6 | 215 | 0.0 | 3.2 | 0.00 | 5.31 | 1.07 | 90 | 1009.9 |
| 20260506214048 | 6 | 215 | 0.0 | 1.6 | 0.00 | 5.31 | 1.07 | 90 | 1010.0 |
| 20260506213046 | 6 | 215 | 0.0 | 1.6 | 0.00 | 5.31 | 1.07 | 90 | 1010.0 |
| 20260506212019 | 6 | 215 | 0.0 | 0.0 | 0.00 | 5.31 | 1.07 | 90 | 1010.1 |
| 20260506211059 | 6 | 215 | 0.0 | 1.6 | 0.00 | 5.31 | 1.07 | 90 | 1010.0 |
| 20260506210026 | 7 | 215 | 0.0 | 0.0 | 0.00 | 5.31 | 1.07 | 89 | 1010.0 |
| 20260506205025 | 7 | 215 | 0.0 | 1.6 | 0.00 | 5.31 | 1.07 | 89 | 1009.8 |
| 20260506204022 | 7 | 215 | 0.0 | 0.0 | 0.00 | 5.31 | 1.07 | 89 | 1009.8 |
| 20260506203033 | 7 | 215 | 0.0 | 0.0 | 0.00 | 5.31 | 1.07 | 89 | 1009.8 |
| 20260506202028 | 7 | 215 | 0.0 | 3.2 | 0.00 | 5.31 | 1.07 | 89 | 1009.7 |
| 20260506201027 | 7 | 215 | 0.0 | 1.6 | 0.00 | 5.31 | 1.07 | 88 | 1009.7 |
| 20260506200046 | 7 | 215 | 0.0 | 1.6 | 0.00 | 5.31 | 1.07 | 88 | 1009.7 |
| 20260506195020 | 8 | 270 | 0.0 | 0.0 | 0.00 | 5.31 | 1.07 | 87 | 1009.5 |
| 20260506194049 | 8 | 270 | 0.0 | 0.0 | 0.00 | 5.31 | 1.07 | 87 | 1009.2 |
| 20260506193025 | 8 | 270 | 0.0 | 0.0 | 0.00 | 5.31 | 1.07 | 86 | 1009.1 |
| 20260506192019 | 8 | 270 | 0.0 | 0.0 | 0.00 | 5.31 | 1.07 | 86 | 1008.9 |
| 20260506191017 | 9 | 270 | 0.0 | 4.8 | 0.00 | 5.31 | 1.07 | 86 | 1008.9 |
| 20260506190030 | 9 | 279 | 0.0 | 4.8 | 0.00 | 5.31 | 1.07 | 85 | 1008.8 |
| 20260506185048 | 9 | 284 | 0.0 | 4.8 | 0.00 | 5.31 | 1.07 | 85 | 1008.8 |
| 20260506184025 | 9 | 281 | 0.0 | 6.4 | 0.00 | 5.31 | 1.07 | 85 | 1008.8 |
| 20260506183042 | 10 | 288 | 0.0 | 4.8 | 0.00 | 5.31 | 1.07 | 84 | 1008.7 |
| 20260506182014 | 10 | 278 | 1.6 | 4.8 | 0.00 | 5.31 | 1.07 | 84 | 1008.6 |